| time (UTC) | temp F | wind direction | speed knots | gust knots | rain 1hr in | rain 24hr in | rain mn in | humidity % | barometer mb |
| 20260505024824 | 52 | 0 | 0.0 | 3.5 | 0.00 | 0.08 | 0.07 | 89 | 1025.2 |
| 20260505023925 | 52 | 0 | 0.0 | 1.7 | 0.00 | 0.08 | 0.07 | 88 | 1025.2 |
| 20260505023025 | 52 | 0 | 0.0 | 1.7 | 0.00 | 0.08 | 0.07 | 90 | 1025.3 |
| 20260505022425 | 52 | 0 | 0.0 | 2.6 | 0.00 | 0.08 | 0.07 | 90 | 1025.4 |
| 20260505021503 | 52 | 0 | 0.0 | 1.7 | 0.00 | 0.08 | 0.07 | 90 | 1025.4 |
| 20260505020604 | 52 | 0 | 0.0 | 0.9 | 0.00 | 0.08 | 0.07 | 90 | 1025.4 |
| 20260505015704 | 52 | 0 | 0.0 | 1.7 | 0.00 | 0.08 | 0.07 | 90 | 1025.4 |
| 20260505014804 | 52 | 0 | 0.0 | 1.7 | 0.00 | 0.08 | 0.07 | 90 | 1025.6 |
| 20260505013925 | 52 | 0 | 0.0 | 1.7 | 0.00 | 0.08 | 0.07 | 90 | 1025.5 |
| 20260505013004 | 52 | 0 | 0.0 | 0.9 | 0.00 | 0.09 | 0.07 | 89 | 1025.5 |
| 20260505012403 | 52 | 0 | 0.0 | 1.7 | 0.00 | 0.09 | 0.07 | 88 | 1025.4 |
| 20260505011503 | 53 | 0 | 0.0 | 1.7 | 0.00 | 0.09 | 0.07 | 88 | 1025.3 |
| 20260505010603 | 52 | 0 | 0.0 | 1.7 | 0.00 | 0.09 | 0.07 | 89 | 1025.3 |
| 20260505005704 | 52 | 0 | 0.0 | 2.6 | 0.00 | 0.09 | 0.07 | 89 | 1025.1 |
| 20260505004804 | 52 | 0 | 0.0 | 2.6 | 0.00 | 0.09 | 0.07 | 89 | 1025.1 |
| 20260505003903 | 52 | 0 | 0.0 | 2.6 | 0.00 | 0.09 | 0.07 | 89 | 1024.9 |
| 20260505003003 | 52 | 0 | 0.0 | 1.7 | 0.00 | 0.09 | 0.07 | 90 | 1024.9 |
| 20260505002404 | 52 | 0 | 0.0 | 2.6 | 0.00 | 0.09 | 0.07 | 91 | 1024.9 |
| 20260505001504 | 51 | 0 | 0.0 | 3.5 | 0.00 | 0.10 | 0.07 | 91 | 1024.7 |
| 20260505000604 | 51 | 218 | 0.9 | 3.5 | 0.00 | 0.10 | 0.07 | 91 | 1024.8 |
| 20260504235703 | 51 | 0 | 0.0 | 3.5 | 0.00 | 0.10 | 0.07 | 92 | 1024.7 |
| 20260504234804 | 50 | 0 | 0.0 | 3.5 | 0.00 | 0.10 | 0.07 | 93 | 1024.7 |
| 20260504233925 | 51 | 0 | 0.0 | 3.5 | 0.00 | 0.10 | 0.07 | 95 | 1024.7 |
| 20260504233003 | 51 | 0 | 0.0 | 0.9 | 0.00 | 0.10 | 0.07 | 96 | 1024.6 |
| 20260504232403 | 51 | 0 | 0.0 | 0.9 | 0.00 | 0.10 | 0.07 | 96 | 1024.6 |
| 20260504231504 | 51 | 0 | 0.0 | 0.0 | 0.00 | 0.11 | 0.07 | 96 | 1024.5 |
| 20260504230604 | 50 | 0 | 0.0 | 0.9 | 0.00 | 0.12 | 0.07 | 96 | 1024.5 |
| 20260504225704 | 50 | 0 | 0.0 | 0.9 | 0.01 | 0.13 | 0.07 | 97 | 1024.4 |
| 20260504224804 | 50 | 0 | 0.0 | 0.9 | 0.01 | 0.13 | 0.07 | 96 | 1024.2 |
| 20260504223903 | 50 | 0 | 0.0 | 2.6 | 0.01 | 0.13 | 0.07 | 97 | 1024.3 |
| 20260504223024 | 50 | 0 | 0.0 | 0.9 | 0.02 | 0.14 | 0.07 | 97 | 1024.2 |
| 20260504222425 | 50 | 0 | 0.0 | 0.0 | 0.02 | 0.14 | 0.07 | 96 | 1024.1 |
| 20260504221503 | 50 | 0 | 0.0 | 0.0 | 0.02 | 0.14 | 0.07 | 97 | 1023.9 |
| 20260504220603 | 50 | 0 | 0.0 | 0.0 | 0.02 | 0.15 | 0.07 | 96 | 1023.9 |
| 20260504215704 | 50 | 0 | 0.0 | 1.7 | 0.01 | 0.17 | 0.06 | 96 | 1023.8 |
| 20260504214803 | 49 | 0 | 0.0 | 3.5 | 0.01 | 0.19 | 0.06 | 96 | 1023.8 |
| 20260504213903 | 49 | 0 | 0.0 | 0.9 | 0.01 | 0.21 | 0.06 | 96 | 1023.7 |
| 20260504213003 | 49 | 0 | 0.0 | 2.6 | 0.00 | 0.21 | 0.06 | 96 | 1023.5 |
| 20260504212404 | 49 | 0 | 0.0 | 3.5 | 0.01 | 0.21 | 0.06 | 96 | 1023.5 |
| 20260504211503 | 49 | 0 | 0.0 | 3.5 | 0.02 | 0.21 | 0.06 | 96 | 1023.3 |
| 20260504210604 | 50 | 0 | 0.0 | 0.9 | 0.02 | 0.24 | 0.06 | 96 | 1023.2 |
| 20260504205703 | 50 | 0 | 0.0 | 1.7 | 0.02 | 0.27 | 0.06 | 96 | 1023.1 |
| 20260504204803 | 50 | 0 | 0.0 | 3.5 | 0.02 | 0.31 | 0.06 | 96 | 1023.0 |
| 20260504203903 | 50 | 0 | 0.0 | 2.6 | 0.02 | 0.31 | 0.06 | 96 | 1022.9 |
| 20260504203004 | 50 | 0 | 0.0 | 4.3 | 0.02 | 0.31 | 0.06 | 96 | 1022.9 |
| 20260504202404 | 50 | 0 | 0.0 | 1.7 | 0.02 | 0.32 | 0.05 | 96 | 1022.9 |
| 20260504201504 | 50 | 0 | 0.0 | 1.7 | 0.01 | 0.32 | 0.04 | 96 | 1022.8 |
| 20260504200603 | 50 | 0 | 0.0 | 3.5 | 0.01 | 0.36 | 0.04 | 96 | 1022.8 |
| 20260504195704 | 50 | 0 | 0.0 | 3.5 | 0.01 | 0.36 | 0.04 | 96 | 1022.7 |
| 20260504194803 | 50 | 0 | 0.0 | 0.9 | 0.01 | 0.39 | 0.04 | 96 | 1022.5 |
| 20260504193903 | 50 | 0 | 0.0 | 2.6 | 0.02 | 0.39 | 0.04 | 96 | 1022.5 |
| 20260504193003 | 50 | 0 | 0.0 | 2.6 | 0.01 | 0.39 | 0.03 | 96 | 1022.5 |
| 20260504192403 | 50 | 0 | 0.0 | 4.3 | 0.01 | 0.39 | 0.03 | 96 | 1022.4 |
| 20260504191503 | 50 | 0 | 0.0 | 4.3 | 0.01 | 0.39 | 0.03 | 96 | 1022.3 |
| 20260504190603 | 50 | 0 | 0.0 | 0.9 | 0.01 | 0.39 | 0.03 | 96 | 1022.2 |
| 20260504185704 | 50 | 0 | 0.0 | 0.9 | 0.01 | 0.43 | 0.03 | 96 | 1022.2 |
| 20260504184803 | 50 | 220 | 0.9 | 2.6 | 0.01 | 0.43 | 0.03 | 96 | 1022.1 |
| 20260504183904 | 50 | 232 | 0.9 | 4.3 | 0.00 | 0.43 | 0.02 | 96 | 1022.0 |
| 20260504183004 | 50 | 0 | 0.0 | 3.5 | 0.01 | 0.43 | 0.02 | 96 | 1021.9 |
| 20260504182403 | 50 | 0 | 0.0 | 2.6 | 0.01 | 0.43 | 0.02 | 96 | 1021.9 |
| 20260504181503 | 50 | 0 | 0.0 | 2.6 | 0.01 | 0.43 | 0.02 | 96 | 1021.9 |
| 20260504180624 | 50 | 0 | 0.0 | 4.3 | 0.01 | 0.43 | 0.02 | 96 | 1021.9 |
| 20260504175703 | 50 | 0 | 0.0 | 3.5 | 0.01 | 0.45 | 0.02 | 96 | 1021.8 |
| 20260504174803 | 50 | 0 | 0.0 | 1.7 | 0.01 | 0.47 | 0.02 | 96 | 1021.9 |
| 20260504173904 | 50 | 0 | 0.0 | 1.7 | 0.01 | 0.48 | 0.02 | 96 | 1021.9 |
| 20260504173003 | 50 | 0 | 0.0 | 1.7 | 0.01 | 0.47 | 0.02 | 95 | 1022.0 |
| 20260504172404 | 51 | 0 | 0.0 | 1.7 | 0.01 | 0.47 | 0.02 | 95 | 1022.1 |
| 20260504171503 | 51 | 228 | 0.9 | 4.3 | 0.01 | 0.47 | 0.02 | 95 | 1022.1 |
| 20260504170604 | 51 | 232 | 0.9 | 2.6 | 0.01 | 0.47 | 0.02 | 95 | 1022.1 |
| 20260504150603 | 50 | 0 | 0.0 | 0.0 | 0.00 | 0.57 | 0.00 | 94 | 1022.0 |
| 20260504140603 | 51 | 0 | 0.0 | 1.7 | 0.00 | 0.91 | 0.87 | 95 | 1021.7 |
| 20260504130603 | 50 | 0 | 0.0 | 3.5 | 0.00 | 1.04 | 0.87 | 94 | 1021.5 |
| 20260504110603 | 51 | 0 | 0.0 | 1.7 | 0.01 | 1.10 | 0.87 | 95 | 1020.7 |
| 20260504100603 | 52 | 0 | 0.0 | 2.6 | 0.00 | 1.11 | 0.87 | 94 | 1019.9 |
| 20260504081503 | 54 | 218 | 0.9 | 4.3 | 0.00 | 1.61 | 0.87 | 89 | 1018.3 |
| 20260504080624 | 54 | 231 | 0.9 | 5.2 | 0.00 | 1.61 | 0.87 | 88 | 1018.3 |
| 20260504050603 | 54 | 232 | 1.7 | 8.7 | 0.00 | 1.65 | 0.87 | 96 | 1016.5 |
| 20260504045703 | 54 | 225 | 1.7 | 7.8 | 0.00 | 1.65 | 0.87 | 96 | 1016.3 |
| 20260504044824 | 54 | 217 | 0.9 | 8.7 | 0.00 | 1.65 | 0.87 | 96 | 1016.3 |
| 20260504043903 | 53 | 214 | 1.7 | 7.8 | 0.00 | 1.65 | 0.87 | 95 | 1016.2 |
| 20260504043003 | 54 | 224 | 1.7 | 9.6 | 0.00 | 1.65 | 0.87 | 96 | 1016.1 |
| 20260504042403 | 54 | 235 | 1.7 | 9.6 | 0.00 | 1.65 | 0.87 | 95 | 1016.1 |
| 20260504041503 | 55 | 242 | 0.9 | 4.3 | 0.00 | 1.65 | 0.87 | 96 | 1016.0 |
| 20260504040603 | 54 | 218 | 0.9 | 3.5 | 0.00 | 1.65 | 0.87 | 96 | 1016.1 |
| 20260504035724 | 53 | 217 | 0.9 | 7.0 | 0.00 | 1.65 | 0.87 | 96 | 1016.1 |
| 20260504034824 | 54 | 224 | 1.7 | 6.1 | 0.00 | 1.65 | 0.87 | 96 | 1016.2 |
| 20260504033903 | 54 | 221 | 1.7 | 9.6 | 0.00 | 1.65 | 0.87 | 96 | 1016.2 |
| 20260504033003 | 54 | 209 | 0.9 | 3.5 | 0.00 | 1.65 | 0.87 | 97 | 1016.2 |
| 20260504032403 | 55 | 238 | 0.9 | 4.3 | 0.00 | 1.65 | 0.87 | 97 | 1016.1 |
| 20260504031524 | 54 | 222 | 1.7 | 7.0 | 0.00 | 1.65 | 0.87 | 97 | 1016.2 |
| 20260504030624 | 53 | 227 | 1.7 | 10.4 | 0.00 | 1.65 | 0.87 | 97 | 1016.3 |
| 20260504025703 | 53 | 238 | 0.9 | 5.2 | 0.00 | 1.65 | 0.87 | 97 | 1016.4 |